Weather in Uman

Ukraine / Cherkassi District     48˚45′02″N   30˚13′10″E
temp.,
°C
wind,
m/s
gust,
m/s
humid.,
%
clouds,
%
prec.,
mm/h
press.,
hPa
HPBL,
m
27 november, fri
fri2723:00+2˚ssw498812 0.0 1023210
02:00+1˚ssw38856 0.0 1023165
05:00sw38820 0.0 1021155
08:00sw367825 0.0 1021144
11:00+4˚wsw356096 0.0 1020261
14:00+5˚wsw355998 0.0 1019271
17:00+3˚wsw3671100 0.0 1019134
20:00+2˚w3576100 0.0 1019125
28 november, sat
sat2823:00+2˚wnw3581100 0.0 1020121
02:00+2˚nw2287100 0.0 101973
05:00+1˚nnw2396100 0.0 101992
08:00+2˚w1196100 0.1 101940
11:00+3˚wsw2286100 0.0 1019269
14:00+4˚wnw2379100 0.0 1019520
17:00+3˚w1182100 0.0 101922
20:00+3˚wnw1184100 0.0 101922
29 november, sun
sun2923:00+2˚nne1187100 0.0 101939
02:00+2˚nne2396100 1.1 1019208
05:00+1˚nne2397100 1.4 1018115
08:00+1˚n1197100 2.3 101992
11:00+1˚nw1196100 0.4 1019111
14:00+2˚nnw1195100 0.4 1020160
17:00+1˚nw119494 0.0 1020151
20:00+1˚nw128596 0.1 1021154
30 november, mon
mon3023:00nw11887 0.0 102221
02:00n128910 0.0 102323
05:00−1˚ne229233 0.0 102251
08:00−1˚nne248967 0.0 1024158
11:00+1˚nne3580100 0.0 1024425
14:00nne4694100 0.2 1024380
17:00n5997100 1.9 1024395
20:00−1˚n5996100 3.2 1025425
1 december, tue
tue123:00−1˚n61097100 1.7 1025446
02:00−1˚n71197100 3.3 1025500
05:00−1˚n61197100 1.1 1025471
08:00−1˚n5997100 2.1 1025402
11:00nne5798100 0.7 1025354
14:00n4698100 0.8 1024250
17:00nne3599100 0.3 1024153
20:00+1˚ene24100100 0.5 1024105